Tracking 19576 objects as of 17-Feb-2019
HD Live streaming from Space Station
objects crossing your sky now

EKRAN 15

Track EKRAN 15 now!
EKRAN 15 is classified as:


NORAD ID: 16729
Int'l Code: 1986-038A
Perigee: 36,807.3 km
Apogee: 36,936.2 km
Inclination: 15.5 °
Period: 1,491.5 minutes
Semi major axis: 43242 km
RCS: 5.2216 m2 (large)
Launch date: May 24, 1986
Source: Commonwealth of Independent States (former USSR) (CIS)
Launch site: TYURATAM MISSILE AND SPACE COMPLEX (TTMTR)
aabbcc
Your satellite tracking list
Your tracking list is empty




NASA's NSSDC Master Catalog

Two Line Element Set (TLE):
1 16729U 86038A   19047.81619451 -.00000087  00000-0  00000+0 0  9991
2 16729  15.4507 343.7057 0014909 322.8098 230.6008  0.96545785 92507
Source of the keplerian elements: AFSPC